This is the latest recevied weather packets stored in our database for station/object KJ5IIV. If no packets are shown the sender has not sent any weather packets the latest 10 day(s).
| Time | Temp. | Humidity | Pressure | Rain* | Wind** | Luminosity | Snow |
|---|---|---|---|---|---|---|---|
| 1777528415 | 16.11° C | 95% | 1014.7 hPa | 3.05 mm | - | 0 W/m² | - |
| 1777528114 | 16.11° C | 95% | 1014.8 hPa | 3.56 mm | - | 0 W/m² | - |
| 1777527810 | 16.11° C | 94% | 1014.7 hPa | 2.29 mm | - | 0 W/m² | - |
| 1777527506 | 16.11° C | 94% | 1014.6 hPa | 8.89 mm | - | 0 W/m² | - |
| 1777527201 | 16.67° C | 94% | 1014.5 hPa | 6.6 mm | - | 0 W/m² | - |
| 1777526898 | 16.67° C | 94% | 1014.9 hPa | 0 mm | - | 0 W/m² | - |
| 1777526593 | 16.67° C | 94% | 1014.9 hPa | 0 mm | - | 0 W/m² | - |
| 1777526293 | 16.67° C | 94% | 1014.6 hPa | 0 mm | - | 0 W/m² | - |
| 1777525989 | 16.67° C | 95% | 1015 hPa | 0 mm | - | 0 W/m² | - |
| 1777525686 | 16.67° C | 95% | 1014.8 hPa | 0 mm | - | 0 W/m² | - |
| 1777525384 | 16.67° C | 94% | 1014.5 hPa | 0 mm | - | 0 W/m² | - |
| 1777525079 | 16.67° C | 95% | 1014.3 hPa | 0 mm | - | 0 W/m² | - |
| 1777524776 | 16.67° C | 94% | 1014.2 hPa | 0 mm | - | 0 W/m² | - |
| 1777524474 | 16.67° C | 95% | 1014.1 hPa | 0 mm | - | 0 W/m² | - |
| 1777524171 | 16.67° C | 95% | 1014.2 hPa | 0 mm | - | 0 W/m² | - |
| 1777523867 | 16.67° C | 95% | 1014.2 hPa | 0 mm | - | 0 W/m² | - |
| 1777523564 | 16.67° C | 94% | 1014.9 hPa | 0 mm | - | 0 W/m² | - |
| 1777523259 | 16.67° C | 94% | 1014.6 hPa | 0 mm | - | 0 W/m² | - |
| 1777522955 | 16.67° C | 94% | 1014.4 hPa | 0 mm | - | 0 W/m² | - |
| 1777522653 | 16.67° C | 94% | 1014.1 hPa | 0 mm | - | 0 W/m² | - |
| 1777522349 | 16.67° C | 94% | 1014.1 hPa | 0 mm | - | 0 W/m² | - |
| 1777522046 | 16.67° C | 94% | 1014.1 hPa | 0 mm | - | 0 W/m² | - |
| 1777521743 | 16.67° C | 94% | 1014 hPa | 0 mm | - | 0 W/m² | - |
| 1777521440 | 16.67° C | 94% | 1013.9 hPa | 0 mm | - | 0 W/m² | - |
| 1777521137 | 16.67° C | 93% | 1014 hPa | 0 mm | - | 0 W/m² | - |
* Rain latest hour (hover to see other rain measurements)
** Current wind speed in m/s (hover to see current wind gust speed)